Miscellaneous Local Product
Issued by NWS Hastings, NE

Home | Current Version | Previous Version | Text Only | Print | Product List | Glossary Off
Versions: 1 2 3 4 5 6 7 8 9 10 11 12 13 14 15 16 17 18 19 20 21 22 23 24 25 26 27 28 29 30 31 32 33 34 35 36 37 38 39 40 41 42 43 44 45 46 47 48 49 50

000
AXUS43 KGID 172302
MISGRI

GID CWA HOURLY WEATHER ROUNDUP
NATIONAL WEATHER SERVICE HASTINGS NE
600 PM CDT THU APR 17 2014

NOTE: "FAIR" INDICATES FEW OR NO CLOUDS BELOW 12,000 FEET WITH NO
SIGNIFICANT WEATHER AND/OR OBSTRUCTIONS TO VISIBILITY.

...SOUTH CENTRAL NEBRASKA...

CITY           SKY/WX    TMP DP  RH WIND       PRES   REMARKS
GRAND ISLAND   SUNNY     54  24  31 SE3       30.22F
HASTINGS       SUNNY     54  24  31 CALM      30.20F
KEARNEY        SUNNY     54  25  32 SW6       30.21S
ORD            SUNNY     52  24  33 SE12      30.19F
YORK           SUNNY     54  23  30 CALM      30.22F
AURORA         SUNNY     54  24  31 CALM      30.22S
LEXINGTON      SUNNY     53  33  45 S6        30.19S
HOLDREGE       SUNNY     53  27  36 SW3       30.20S
HEBRON         SUNNY     55  26  32 CALM      30.23S

...NEBRASKA PANHANDLE...

CITY           SKY/WX    TMP DP  RH WIND       PRES   REMARKS
CHADRON        SUNNY     56  38  50 S17       30.00F
ALLIANCE       SUNNY     52  35  52 SE17      30.04F
SCOTTSBLUFF    SUNNY     59  37  44 SE22      30.00F
SIDNEY         MOSUNNY   62  36  37 SE14      30.03F

...WESTERN AND NORTH CENTRAL NEBRASKA...

CITY           SKY/WX    TMP DP  RH WIND       PRES   REMARKS
VALENTINE      SUNNY     54  24  31 S16G24    30.11F
AINSWORTH      SUNNY     54  24  31 SE15      30.14F
ONEILL         CLOUDY    51  17  26 SE6       30.21S
BROKEN BOW     SUNNY     52  26  36 S12       30.17F
IMPERIAL       PTSUNNY   57  36  45 S21G28    30.11F
NORTH PLATTE   SUNNY     54  31  41 S13G22    30.14F
MCCOOK         CLOUDY    55  34  45 S12       30.17F

...EASTERN NEBRASKA...

CITY           SKY/WX    TMP DP  RH WIND       PRES   REMARKS
NORFOLK        SUNNY     52  20  28 SE5       30.22F
SO SIOUX CITY  MOSUNNY   52  24  33 NE3       30.26S
TEKAMAH        SUNNY     55  19  24 CALM      30.24S
COLUMBUS       SUNNY     54  25  32 S7        30.24S
ALBION         PTSUNNY   52  22  31 SE6       30.22S
OMAHA EPPLEY   SUNNY     56  24  29 NW3       30.25R
OFFUTT AFB     SUNNY     55  27  33 CALM      30.25S
MILLARD        SUNNY     54  25  32 CALM      30.24S
LINCOLN        SUNNY     56  23  27 VRB7      30.25S
NEBRASKA CITY    N/A     54  27  35 CALM      30.25S
BEATRICE       SUNNY     55  26  32 S3        30.24S
FALLS CITY     SUNNY     55  28  35 CALM      30.25R

...NORTHERN KANSAS...

CITY           SKY/WX    TMP DP  RH WIND       PRES   REMARKS
GOODLAND       CLOUDY    53  37  54 S21G26    30.15F
HILL CITY      SUNNY     58  30  34 S10       30.19F
PHILLIPSBURG   SUNNY     57  27  30 E3        30.20F
SMITH CENTER   SUNNY     54  25  32 S3        30.22S
BELOIT         SUNNY     55  27  33 CALM      30.22S
HAYS           SUNNY     57  30  35 CALM      30.21S
RUSSELL        SUNNY     56  29  35 E5        30.20F
CONCORDIA      SUNNY     55  28  35 VRB3      30.22F
SALINA         SUNNY     57  28  33 CALM      30.23F
TOPEKA         MOSUNNY   52  34  50 SE5       30.27S



USA.gov is the U.S. government's official web portal to all federal, state and local government web resources and services.